Theta_e
292 293 293 295 294 293 292 292 292 291 292 292 289 290 293 292 287 285 291 292 290 292 294 293 294 294 295 295 294 294 294 295 295 294 293 294 295 296 298 298 298 298 297 296 296 296 297 295 296 296 296 296 295 295 295 296 295 296 298 299 298 298 298 298 298 299 299 300 298 295 294 295 294 294 294 293 293 293 293 293 295 296 297 297 296 296 295
291 291 292 294 293 293 292 292 292 293 293 292 292 292 294 293 291 293 293 293 292 295 294 297 297 296 296 295 294 293 293 294 293 294 294 295 295 295 297 298 300 299 298 297 297 297 296 297 296 296 296 296 296 296 297 298 299 299 299 298 298 298 298 297 296 296 296 296 295 293 293 293 292 292 292 292 292 293 293 293 293 293 294 294 295 296 295
288 291 292 292 293 292 289 291 293 293 293 293 293 293 293 293 293 294 293 292 291 296 297 297 299 299 296 292 292 292 293 294 295 295 295 294 295 295 296 296 297 298 299 298 297 297 297 297 297 298 298 298 297 296 296 298 299 299 299 298 297 297 297 296 294 293 292 291 290 291 291 290 290 291 291 290 291 291 291 291 291 291 292 293 293 293 294
286 288 289 290 291 290 289 289 291 291 291 289 291 290 293 291 290 291 291 289 290 296 298 298 298 299 294 292 292 291 292 294 295 294 294 294 295 296 296 296 296 298 298 298 298 298 297 297 297 297 297 297 296 296 296 297 297 298 298 298 297 296 295 293 292 292 290 290 290 289 289 290 290 289 289 289 290 290 289 290 290 289 291 292 292 291 291
285 287 289 289 288 287 285 286 290 291 292 293 294 294 295 294 294 290 287 289 296 295 297 298 298 298 298 295 294 293 294 295 294 294 294 295 296 296 296 296 296 298 298 298 299 298 296 298 298 298 297 296 296 296 296 295 296 296 297 296 296 295 293 292 291 290 290 290 290 289 289 289 289 288 288 289 289 289 289 289 288 290 291 290 290 290 290
286 286 287 288 286 279 281 293 295 294 292 292 290 290 292 294 295 293 295 295 297 296 296 296 295 296 298 299 299 299 298 297 297 298 298 298 298 297 297 298 298 298 298 298 298 298 298 298 297 296 297 296 296 295 295 293 294 295 296 295 296 293 291 291 290 290 290 290 290 289 289 288 288 288 288 288 288 288 288 288 289 289 288 289 289 289 290
283 286 287 284 279 281 293 296 297 297 296 295 293 293 294 295 296 296 295 296 296 296 297 297 298 297 297 299 299 298 298 298 299 299 299 298 298 298 297 297 296 296 298 297 297 296 296 296 294 295 293 293 293 293 293 293 293 295 295 294 294 293 292 291 290 290 289 289 289 289 288 288 288 288 288 288 288 288 288 288 288 289 289 288 289 288 288
286 284 284 278 279 288 294 295 296 298 297 295 293 291 294 295 295 296 295 296 297 298 298 298 298 297 297 296 297 298 298 299 300 300 299 297 296 296 297 296 297 296 296 297 297 297 294 295 294 294 295 293 294 292 290 291 291 293 293 293 293 292 292 291 290 290 290 289 289 289 288 288 287 287 287 287 287 287 287 287 287 288 287 287 287 287 288
282 283 284 284 289 287 290 290 291 294 292 292 290 286 290 295 296 296 295 296 297 298 298 299 295 294 295 293 296 295 297 299 301 301 299 298 298 298 298 297 298 297 295 295 295 294 294 294 294 293 292 292 292 290 290 290 291 292 292 292 292 292 292 291 290 290 290 289 288 288 287 287 287 287 287 287 287 287 287 287 287 287 287 287 287 287 286
286 283 282 283 283 281 286 293 296 299 298 298 297 292 289 296 297 298 297 296 297 297 297 296 294 294 291 292 294 296 298 301 301 297 298 296 296 296 296 296 295 295 294 293 293 294 292 291 291 291 290 291 291 290 289 290 291 291 292 292 292 292 292 292 291 290 290 290 288 287 287 287 287 287 287 287 287 287 287 286 287 287 286 286 286 286 286
284 283 281 281 280 284 292 292 295 297 298 297 296 290 287 295 297 298 298 297 297 297 296 295 293 292 290 292 294 297 300 301 298 298 298 298 299 298 296 296 294 292 292 290 289 289 289 290 289 288 288 289 289 288 287 289 290 291 291 292 291 292 291 291 291 290 290 289 288 287 287 287 287 287 286 286 286 286 287 286 286 286 286 286 286 286 286
285 284 282 281 285 286 289 294 295 297 298 299 293 281 283 295 297 298 298 297 297 297 296 295 294 293 290 292 294 297 298 297 297 299 298 297 296 293 286 286 287 288 287 289 289 289 288 288 287 288 288 288 287 287 286 287 288 289 290 291 292 292 292 291 291 290 289 288 288 287 287 287 287 287 286 286 286 286 286 286 286 286 286 286 285 286 286
285 285 284 285 286 291 291 294 296 297 299 296 286 281 290 294 297 298 298 298 298 298 296 296 294 296 298 296 294 294 293 292 292 289 288 288 288 286 284 285 287 286 287 286 286 286 286 286 286 287 288 288 287 286 286 286 285 287 289 291 291 292 291 291 290 289 288 288 287 287 287 287 287 286 286 286 286 286 285 286 285 285 285 285 285 285 285
283 285 284 284 288 290 293 290 297 298 294 284 284 294 292 293 293 295 298 298 298 298 298 297 298 299 298 290 292 290 291 293 288 286 286 286 286 285 284 285 286 286 285 285 285 284 284 284 286 286 287 287 286 286 286 286 285 285 288 290 291 291 291 290 289 288 288 287 287 287 286 286 286 286 286 286 286 286 286 285 285 284 285 284 285 285 285
285 284 283 281 280 290 296 294 294 296 290 291 290 287 289 288 290 292 294 296 297 299 298 299 299 297 291 290 290 290 288 289 288 287 287 287 286 286 285 284 285 287 286 284 284 283 284 284 285 285 286 286 285 285 285 284 285 286 286 287 288 289 289 288 287 287 287 287 287 287 286 286 286 286 285 285 285 285 285 285 284 284 284 284 284 284 284
283 283 282 283 289 290 297 296 291 294 294 292 288 290 288 290 289 291 291 292 292 294 295 293 291 291 291 288 288 288 286 285 286 284 284 284 284 283 282 283 284 285 285 284 284 283 283 283 283 283 286 286 285 285 284 283 284 285 285 284 285 286 287 287 287 286 286 286 286 286 286 286 286 285 285 285 284 284 284 284 283 283 282 283 282 282 282
287 286 289 290 287 294 297 297 294 297 296 294 290 290 292 291 288 288 293 293 292 294 295 294 294 291 290 289 289 290 288 286 286 285 284 284 283 283 283 283 284 284 284 284 285 285 285 284 283 282 283 285 284 284 283 283 283 284 284 284 284 283 284 285 285 285 285 285 285 285 285 286 285 285 284 284 283 283 283 283 283 282 281 282 282 282 282
293 291 288 289 287 291 294 292 292 298 295 290 288 289 291 289 290 291 294 291 290 290 291 293 288 291 289 288 286 286 286 285 284 283 283 283 283 282 282 283 284 285 285 285 285 284 283 282 282 282 282 282 283 281 282 282 281 283 283 283 282 282 281 281 281 282 283 284 285 285 285 285 285 285 284 283 283 282 282 282 282 282 281 281 281 281 281
289 286 293 287 287 289 292 293 291 294 291 288 287 287 289 289 288 288 288 290 290 290 290 292 291 287 287 288 287 286 286 285 284 284 283 283 282 282 282 283 285 285 285 285 284 284 282 280 280 280 280 281 281 281 281 281 282 282 282 282 281 280 279 279 279 279 279 280 281 283 283 284 284 283 283 283 283 282 282 282 282 281 281 280 280 280 280
288 289 290 287 287 290 293 292 292 292 289 287 286 286 285 285 285 285 285 286 288 287 289 288 289 288 288 288 287 286 286 285 285 284 283 282 281 281 282 284 285 285 285 284 284 283 281 280 278 278 278 278 278 280 280 281 281 282 282 281 280 278 278 279 279 279 278 279 279 277 279 281 280 280 281 282 282 281 281 281 281 281 281 280 280 280 280
289 287 286 288 287 288 289 289 290 292 292 289 286 285 285 285 286 285 284 283 286 287 289 287 288 288 287 288 288 286 285 285 284 283 283 281 281 281 282 284 285 284 284 283 282 281 280 279 277 276 275 276 277 277 278 279 281 280 280 279 278 277 278 278 278 278 278 277 277 277 276 278 278 279 279 279 279 279 279 279 279 279 278 278 279 278 278
286 287 289 287 287 285 288 288 289 289 290 289 287 285 286 285 285 284 285 284 284 284 285 286 288 289 287 286 287 286 285 284 283 282 281 281 280 281 283 283 284 283 283 282 280 279 278 277 276 274 274 274 274 275 276 277 279 279 278 278 277 277 277 277 277 277 277 275 276 276 276 275 276 276 280 282 280 277 278 282 283 283 283 279 278 279 278
288 291 288 291 288 286 291 293 292 290 291 292 290 288 287 286 285 285 285 285 285 286 284 284 286 287 287 286 286 285 284 283 282 282 281 281 281 281 282 282 281 281 280 280 278 277 277 276 274 273 272 272 273 273 274 274 277 278 278 278 277 277 277 276 276 276 275 275 276 276 276 275 274 274 274 277 282 282 282 281 282 282 283 282 283 283 280
290 289 292 292 288 289 290 292 293 293 292 292 292 290 289 288 286 285 285 286 287 284 283 284 285 287 286 286 286 283 282 282 282 281 280 280 280 280 280 280 280 279 278 278 277 276 275 273 272 271 271 270 271 271 272 274 275 277 278 278 277 276 275 275 276 276 274 274 274 275 273 273 274 274 273 274 274 280 282 281 281 281 282 282 282 282 283
291 287 289 291 291 289 292 293 293 293 292 291 292 291 288 286 285 286 286 285 284 286 286 285 283 286 287 285 284 283 282 280 280 280 280 279 279 278 278 278 278 277 276 276 275 274 272 271 270 270 269 269 269 269 271 272 274 276 276 277 276 275 275 275 274 275 274 274 274 274 273 273 274 273 273 273 273 273 275 280 280 281 281 281 282 282 282
289 288 289 290 291 290 286 289 291 291 288 288 289 288 286 286 286 285 283 282 284 283 285 285 285 283 284 283 282 280 280 279 279 279 278 277 276 276 275 274 274 274 274 273 272 271 270 269 268 268 267 267 267 268 269 271 273 274 274 274 274 274 274 274 274 273 273 273 274 273 273 272 273 273 273 272 271 272 273 272 273 277 280 281 281 281 282
288 289 288 288 287 286 286 291 292 291 289 288 288 285 284 284 283 282 280 280 280 280 282 283 283 282 281 281 280 280 279 279 278 277 276 275 274 273 273 273 273 272 272 271 270 270 270 269 268 267 266 266 266 266 267 269 272 273 273 273 273 273 273 274 274 274 273 272 272 273 272 272 271 271 271 271 272 272 272 272 273 273 272 274 279 281 279
286 287 287 291 288 288 288 286 283 286 287 287 285 283 281 282 282 281 280 280 280 280 281 281 281 281 280 280 280 278 278 277 276 274 274 273 272 272 272 272 272 271 271 270 270 269 269 268 267 266 265 265 266 266 267 268 271 272 272 273 273 272 272 273 273 272 272 273 272 273 272 271 271 271 271 271 271 271 272 272 273 273 275 277 277 280 281
281 280 279 280 281 285 284 283 283 284 282 282 282 282 282 282 280 280 279 279 279 280 280 278 278 279 280 279 279 278 276 275 274 273 272 272 272 271 271 271 270 270 270 269 268 268 267 266 266 265 264 264 265 265 266 268 269 269 270 271 271 271 270 270 271 271 270 270 269 271 273 271 270 270 270 270 270 270 271 272 273 274 274 273 272 273 277
280 278 279 281 283 284 286 284 283 282 281 281 282 281 282 283 281 279 279 278 278 279 278 278 279 278 278 278 277 277 275 273 272 272 272 272 272 271 271 270 270 269 268 267 266 265 265 264 264 263 263 263 264 264 265 268 269 268 268 268 268 268 269 269 268 270 270 270 268 272 270 270 269 268 268 269 270 270 270 270 271 271 269 269 274 270 270
280 280 280 281 282 283 285 284 281 281 281 281 282 282 281 281 281 279 279 278 278 278 277 277 277 276 275 274 273 273 273 272 272 271 270 270 269 269 270 271 271 268 266 265 265 264 264 263 263 263 262 262 263 264 266 268 268 268 268 269 268 271 272 272 272 269 268 268 268 268 268 268 267 268 268 268 267 267 267 268 268 268 269 269 271 272 273
280 279 279 279 279 279 278 279 281 280 280 281 281 282 282 281 280 279 278 277 276 276 275 274 273 272 272 272 272 271 270 269 269 268 267 267 267 266 266 266 266 265 264 263 263 264 264 263 262 262 261 262 263 263 265 267 267 267 267 267 267 266 269 271 269 269 267 267 267 267 267 266 266 266 267 267 267 268 268 268 268 269 270 271 272 271 272
278 279 279 277 277 277 277 277 280 279 280 280 279 278 278 278 279 278 276 275 274 274 273 271 271 271 271 271 270 269 268 268 267 266 266 265 265 265 265 264 264 263 263 263 262 262 262 262 262 261 261 262 262 263 264 265 265 265 265 265 266 266 267 269 269 266 266 266 266 265 265 265 265 265 266 267 268 268 267 267 267 268 268 268 268 267 270
274 276 276 278 280 280 280 279 279 278 275 274 274 275 275 275 275 274 274 273 272 271 271 271 270 270 270 270 269 269 269 269 267 266 265 264 264 263 263 263 262 262 262 262 262 261 261 261 261 262 261 261 261 262 262 263 264 264 263 264 265 265 265 265 266 265 265 265 265 266 265 265 265 265 265 265 265 265 265 265 266 266 266 265 265 266 270
273 274 274 274 277 279 280 280 278 276 274 272 271 271 272 272 272 272 272 272 271 271 271 271 271 271 271 270 270 270 269 268 266 265 264 263 263 262 262 262 262 261 261 261 261 261 260 260 259 260 261 260 260 260 261 262 262 262 261 263 264 263 263 264 264 264 263 263 263 263 263 262 263 265 265 264 263 264 264 265 264 264 264 264 264 264 266
270 270 270 271 271 273 274 274 274 274 273 272 271 270 270 270 270 271 270 270 271 271 270 269 269 269 268 268 267 266 266 266 266 265 264 264 264 264 263 263 262 261 261 261 261 260 261 260 263 264 261 260 259 259 261 261 259 261 261 262 262 263 263 263 263 263 263 262 262 263 262 264 264 263 263 262 262 262 262 262 262 263 263 263 264 264 263
268 268 268 268 267 268 268 269 270 270 269 268 268 268 267 268 269 270 270 269 268 268 267 267 266 265 264 264 264 265 265 266 266 266 266 266 266 265 265 264 264 263 263 260 259 261 260 261 262 263 262 259 259 259 260 261 259 260 260 260 260 261 261 261 262 261 262 262 262 262 263 263 261 261 263 261 261 261 262 261 263 263 262 262 263 263 263
266 266 266 265 265 265 265 265 266 266 265 265 265 265 266 267 267 267 266 266 265 265 265 264 263 263 263 263 263 263 263 264 264 265 266 266 265 264 263 263 262 262 260 258 258 258 258 261 262 261 259 258 258 259 261 261 262 260 260 260 260 261 261 261 262 262 261 261 262 262 262 262 261 260 260 261 261 261 262 262 262 262 261 261 261 261 262
265 265 265 264 264 264 263 264 264 264 264 263 263 263 264 264 265 265 264 264 265 265 264 264 264 263 263 262 261 261 261 262 263 263 262 261 261 259 257 257 258 258 257 258 260 260 261 260 261 261 261 260 260 259 260 261 261 259 259 259 260 261 262 261 261 261 261 261 260 260 259 260 260 260 260 260 260 261 262 262 261 262 261 260 260 261 261
264 263 264 263 262 262 261 261 262 262 263 264 264 263 264 264 264 263 263 263 263 265 265 265 265 264 262 262 260 260 259 260 261 261 260 259 259 258 258 258 259 259 261 261 261 261 260 261 262 262 262 262 261 260 260 260 261 259 259 259 260 260 260 260 260 260 259 259 259 261 260 259 259 260 260 260 259 260 259 260 260 260 260 259 259 259 260
263 262 261 261 261 261 260 260 259 260 260 261 261 262 263 263 263 262 261 261 261 262 263 264 263 262 261 260 259 259 259 260 260 261 262 263 263 263 262 260 260 260 260 260 260 261 261 261 261 261 261 261 261 259 259 259 260 259 259 258 258 259 258 258 259 259 259 258 259 258 258 258 259 258 259 258 259 258 258 258 259 259 258 258 258 259 259
262 262 261 261 260 260 260 259 259 258 258 259 260 260 261 261 261 260 260 260 260 260 260 260 261 261 261 260 260 260 259 259 259 259 259 260 263 265 262 260 260 258 259 259 260 261 261 261 261 259 259 259 260 258 259 259 260 258 258 258 258 258 258 258 258 257 258 258 257 256 257 257 257 257 257 258 257 257 257 257 257 257 257 258 258 258 258
261 261 261 260 260 260 259 259 258 258 257 258 258 259 260 261 261 261 260 260 260 260 260 260 261 262 262 262 261 261 260 260 260 260 259 259 259 260 261 259 259 258 258 259 260 260 260 260 260 259 258 258 258 258 258 259 259 260 259 258 258 258 257 258 257 257 257 256 255 256 255 255 255 255 256 255 256 256 256 256 256 256 257 257 256 257 258
262 261 261 261 261 260 260 259 259 258 257 257 257 258 258 258 259 259 259 259 259 259 259 260 260 260 261 263 263 262 262 262 262 263 261 260 259 259 259 259 259 258 258 258 259 259 259 259 258 258 257 258 258 258 258 258 258 259 257 257 257 257 257 256 256 256 255 256 255 254 253 256 255 254 254 255 255 254 255 255 255 255 256 256 256 257 258
259 260 260 260 260 259 259 259 258 257 257 257 257 257 257 256 256 257 258 258 257 258 258 258 258 258 259 259 259 259 259 260 260 262 264 264 263 259 258 257 259 258 257 257 257 258 258 258 258 257 257 257 257 257 257 258 258 259 256 256 256 256 256 256 256 255 255 255 255 255 256 255 254 254 254 254 257 256 255 256 256 256 256 256 256 257 257
257 258 259 258 258 258 258 258 258 259 259 258 257 256 256 256 255 255 255 256 256 256 256 257 256 256 257 258 259 259 259 259 259 259 258 259 260 259 258 257 257 256 256 256 257 257 258 258 257 257 257 257 257 256 255 255 255 254 254 254 254 255 254 254 254 254 254 254 254 253 253 253 252 253 253 253 253 255 256 258 258 256 256 257 256 257 257
257 258 258 258 258 259 260 261 262 262 261 260 258 256 255 255 255 255 255 255 255 255 255 255 255 255 255 255 256 259 261 260 258 258 258 258 257 256 257 256 256 256 256 255 256 256 256 256 256 256 256 256 256 253 253 253 253 252 252 253 253 253 253 252 253 253 253 253 255 256 257 255 254 253 255 256 256 256 255 256 255 255 255 257 256 258 258
257 257 258 258 259 260 260 259 258 257 256 256 256 255 255 255 255 255 255 255 255 255 255 255 254 254 254 254 254 255 255 258 260 258 257 255 256 256 256 256 255 255 254 255 255 256 256 256 256 256 256 256 254 253 252 253 252 252 251 252 251 251 251 251 251 252 252 253 254 252 252 252 253 253 253 254 255 255 255 255 256 256 256 256 256 256 256
257 257 257 257 257 259 259 258 257 256 256 256 256 256 256 256 257 257 256 256 256 257 256 255 254 254 254 253 254 254 255 255 256 256 255 254 253 254 254 254 254 254 254 254 254 254 255 256 255 256 255 255 252 251 251 251 251 253 252 251 251 252 252 252 252 251 251 252 252 253 253 254 254 253 254 255 255 255 256 256 256 256 256 257 257 257 257
256 256 255 254 254 254 256 257 256 255 256 255 255 255 255 257 258 257 256 255 255 255 256 257 256 255 255 254 254 255 254 253 253 253 253 253 253 253 253 253 253 253 254 254 253 253 254 255 255 255 253 251 250 251 251 251 250 251 251 252 252 251 253 254 256 256 254 254 253 254 254 255 254 255 256 256 255 256 256 256 256 257 258 258 257 257 257
254 254 254 253 253 253 253 253 254 254 254 254 254 254 255 255 255 255 255 254 255 255 256 256 256 255 255 254 255 254 253 253 252 252 253 253 253 253 253 253 253 253 253 253 253 252 251 250 250 251 251 251 250 250 250 250 250 251 252 251 251 252 252 253 253 252 252 253 253 254 254 254 254 254 254 255 255 255 256 256 256 256 255 255 256 256 256
254 254 254 254 254 254 254 253 253 253 254 254 254 253 254 254 254 255 255 254 254 253 254 254 255 256 254 253 254 253 253 253 253 253 253 253 253 252 253 253 253 252 252 251 251 251 250 251 252 253 253 250 249 249 252 253 252 251 251 252 252 252 253 253 253 253 252 253 253 253 254 254 254 254 254 254 255 255 255 255 255 255 255 255 255 256 256
Wind_Speed
6 10 11 13 13 15 20 23 24 24 21 17 15 15 17 13 11 16 19 20 22 26 19 7 12 10 8 8 7 8 7 5 5 5 5 5 5 5 5 5 5 4 4 4 5 5 6 5 6 5 5 5 4 4 5 5 4 4 5 4 3 3 2 3 3 2 2 1 1 2 3 3 4 4 5 5 4 5 4 4 5 6 6 7 7 7 6
8 8 11 13 16 13 13 15 18 20 22 23 22 21 21 20 17 21 25 23 26 28 6 7 7 7 8 6 5 5 6 7 6 6 6 6 6 6 6 6 6 5 5 4 5 5 5 7 7 7 7 7 7 7 7 7 7 5 6 5 5 4 4 4 3 3 3 4 3 3 2 3 3 4 4 4 5 5 5 5 5 4 5 5 7 8 9
8 7 11 12 14 14 14 16 18 18 17 19 21 19 19 18 19 22 24 21 21 13 4 5 4 10 7 5 7 8 7 7 7 7 7 7 7 7 7 6 5 5 5 5 5 6 7 8 9 9 9 8 7 8 7 7 7 7 7 6 6 5 5 4 3 3 3 3 3 3 3 3 3 3 4 4 4 4 4 4 4 4 5 5 6 5 6
5 4 14 13 13 14 17 17 18 19 19 17 18 19 23 21 22 22 15 13 19 17 7 4 3 2 5 7 8 6 5 7 8 8 7 7 8 8 7 6 6 6 6 6 6 7 7 7 8 7 8 7 8 9 8 8 7 6 6 6 6 6 5 5 4 4 4 4 4 3 3 3 3 3 3 4 4 4 4 4 4 4 5 5 5 4 4
11 9 10 14 12 8 9 16 22 24 24 26 27 27 23 17 19 16 15 23 27 4 9 12 12 11 7 8 7 5 7 9 9 10 10 10 10 9 7 6 7 7 8 7 8 7 6 6 7 8 7 7 9 8 8 7 6 7 6 5 5 5 5 5 5 5 5 5 5 4 4 4 4 4 4 4 4 5 6 4 4 5 6 6 6 5 6
8 9 6 10 11 16 18 19 28 29 28 27 21 20 21 19 15 14 19 23 15 7 9 10 7 9 12 10 8 10 10 8 8 9 9 10 8 6 5 6 7 8 6 6 7 7 7 7 6 6 8 8 7 6 7 6 8 7 7 6 6 6 6 6 6 6 5 6 5 5 5 5 5 5 5 5 4 4 4 4 6 6 4 6 5 6 7
7 9 9 10 16 16 16 8 12 20 23 20 21 21 22 19 19 22 25 23 18 9 7 9 11 8 6 8 11 9 8 8 9 13 11 9 7 7 6 5 5 6 7 6 6 5 6 5 4 5 5 5 5 5 6 7 6 7 7 7 7 7 7 7 6 6 6 6 6 5 5 5 5 4 4 5 5 5 5 6 6 7 6 6 7 6 6
4 9 11 12 14 6 4 9 15 14 8 12 17 22 24 26 28 27 25 24 19 13 13 10 9 10 10 8 10 10 8 9 13 15 12 6 6 6 6 6 6 6 7 8 8 8 5 5 5 5 6 6 7 6 5 7 6 6 7 7 6 6 7 7 7 6 6 6 5 5 5 5 4 4 4 4 5 4 4 3 3 4 3 3 5 5 6
9 8 13 14 3 4 5 6 10 16 20 23 22 20 24 22 13 14 19 23 22 21 21 15 3 2 1 5 9 6 8 12 16 16 8 7 8 7 7 7 6 5 6 6 6 5 5 5 6 5 5 6 7 7 6 6 7 7 7 7 8 8 8 7 7 6 6 6 5 5 4 4 4 4 4 4 4 3 4 4 4 5 5 4 4 5 5
4 11 9 6 7 9 12 18 15 24 19 16 16 11 16 8 20 24 25 28 27 22 15 7 8 0 5 14 11 7 11 18 17 7 6 6 6 6 7 3 5 5 5 4 3 5 6 5 5 5 5 6 7 7 6 6 7 7 7 7 6 6 6 7 7 7 6 7 6 6 6 6 5 4 3 3 4 4 6 6 6 5 4 4 4 5 6
6 5 9 9 12 17 18 10 12 14 11 9 9 4 19 19 20 23 25 26 19 15 12 10 7 8 13 20 6 12 18 17 8 7 10 8 10 9 5 5 6 5 3 4 4 4 4 5 3 5 5 6 6 5 5 5 5 5 6 5 5 6 6 6 7 7 7 7 6 6 6 6 6 6 6 5 4 4 4 4 4 4 4 4 4 3 4
7 9 10 12 7 15 5 14 15 13 13 15 13 6 15 30 19 19 22 25 21 16 12 10 12 15 19 19 7 12 12 9 10 13 13 11 9 1 6 6 5 4 4 4 2 2 3 4 4 6 5 6 5 5 4 5 4 4 4 4 4 5 6 7 7 6 5 6 5 6 5 4 4 5 5 5 5 5 4 4 4 4 4 4 5 4 4
11 14 7 4 7 8 7 16 15 14 17 15 12 14 26 3 17 20 20 21 19 16 13 13 14 18 18 11 6 7 7 5 2 1 2 2 2 5 4 4 4 5 5 4 4 3 3 4 5 5 6 6 6 5 6 5 4 4 4 3 4 5 6 7 6 6 5 5 6 4 4 4 4 4 4 5 5 5 5 4 4 4 5 4 4 4 4
11 11 13 12 12 4 8 6 19 19 15 10 23 19 5 10 9 14 18 19 17 17 19 16 17 18 13 7 8 7 8 9 6 4 5 5 6 5 5 5 6 5 6 6 6 4 3 4 4 5 5 6 6 6 6 5 5 5 6 5 4 5 6 6 6 5 5 4 5 5 5 6 5 4 3 4 5 5 4 5 6 6 5 5 5 4 4
1 2 5 3 12 9 20 15 15 18 19 21 5 4 2 2 6 8 10 13 16 20 21 23 23 14 7 10 9 9 7 8 8 7 6 7 7 6 5 4 3 7 6 6 5 4 3 3 3 4 6 6 5 5 5 4 4 5 5 5 4 5 5 5 5 6 5 5 5 4 5 5 5 5 3 4 3 3 4 4 5 5 5 4 4 4 3
11 12 13 12 8 5 19 25 18 18 5 0 3 7 0 1 4 8 6 7 7 8 8 8 5 6 6 5 7 6 5 5 5 5 4 5 5 5 4 3 4 6 8 6 6 4 4 4 3 3 6 7 5 6 5 4 5 5 6 5 5 5 5 5 6 5 5 5 5 4 4 4 4 4 4 3 2 2 2 3 3 3 2 2 2 3 3
12 16 17 6 3 9 11 12 6 12 10 0 1 1 7 6 4 3 6 8 9 11 13 10 10 6 7 8 10 11 9 8 7 6 5 5 5 5 5 4 5 5 8 9 7 6 5 5 4 4 3 7 6 5 1 4 4 5 5 5 5 5 5 5 6 5 5 5 5 4 4 5 5 4 4 4 3 2 3 3 3 3 3 3 4 4 4
10 7 2 0 1 3 10 2 3 15 9 1 2 0 7 6 6 8 10 8 6 6 7 10 4 8 7 8 6 6 7 7 5 6 7 6 5 5 5 5 6 8 8 8 8 9 7 6 6 6 6 5 7 2 3 4 4 5 6 6 5 5 5 5 5 6 7 6 5 5 4 3 3 3 4 4 3 3 3 3 3 4 3 3 4 3 4
9 13 14 4 4 3 6 7 3 7 4 2 1 2 4 1 4 3 2 8 8 8 8 9 9 6 7 8 6 7 8 8 8 8 8 6 6 6 7 6 8 8 8 9 9 8 9 6 7 6 7 7 5 4 5 4 5 6 7 7 7 6 6 6 5 6 6 5 5 5 4 4 4 4 3 3 3 3 3 3 3 3 3 4 4 4 5
15 16 6 6 6 7 10 7 7 7 3 5 3 3 3 1 2 4 4 4 5 4 5 6 8 7 7 11 9 9 8 9 9 8 8 8 7 5 6 7 7 8 8 9 9 9 9 7 7 7 7 7 6 6 5 5 6 7 7 7 7 6 6 5 5 6 6 7 7 5 4 4 4 4 2 3 3 4 4 4 4 4 4 4 5 6 6
9 5 5 6 5 6 8 6 5 6 7 7 4 4 4 3 5 4 4 4 2 5 6 7 8 9 8 9 12 11 8 8 8 8 8 7 8 8 9 7 8 8 9 10 10 10 9 7 7 7 7 7 7 7 5 5 7 8 8 7 7 6 6 6 6 5 5 4 5 5 4 5 4 3 4 2 2 1 1 2 2 3 3 3 4 3 3
13 15 15 10 10 8 7 4 2 2 2 4 5 5 5 5 5 4 5 3 3 2 2 5 9 11 8 7 10 11 9 9 10 10 10 9 9 9 8 9 10 11 9 10 10 9 7 7 7 7 7 6 6 6 4 4 7 10 8 8 7 6 6 6 6 6 5 5 5 5 4 4 5 4 5 5 3 2 0 1 3 2 3 2 3 4 3
21 17 3 9 3 4 7 11 9 8 8 9 10 10 8 7 6 7 9 7 2 2 1 1 5 7 11 10 9 10 8 8 8 9 11 11 10 10 10 12 11 11 11 10 10 9 7 6 7 7 7 6 7 7 5 4 5 7 7 8 7 6 6 5 6 6 5 5 5 5 4 4 3 3 2 2 4 5 4 4 5 4 2 3 3 1 2
5 7 15 12 6 8 8 11 11 13 10 10 12 10 9 10 10 9 9 8 12 6 2 1 3 8 9 9 12 12 9 8 10 9 8 9 9 10 9 10 12 12 11 10 10 9 7 7 7 7 8 7 7 6 6 5 4 5 5 7 7 6 6 5 6 5 5 5 5 6 4 4 4 4 2 1 2 2 1 1 1 2 4 4 3 2 4
11 4 5 11 9 6 10 13 13 13 10 9 10 10 9 7 6 8 9 6 5 13 11 6 5 6 12 10 11 13 13 10 9 11 10 10 9 10 10 10 10 10 9 8 8 8 8 8 8 7 8 6 6 6 6 5 4 7 6 7 7 6 5 6 6 6 6 5 5 5 5 4 4 3 3 2 2 3 3 3 2 2 3 3 4 4 4
5 3 6 8 8 7 5 5 8 9 6 5 4 3 4 7 7 6 4 4 5 5 8 9 10 6 7 12 11 11 12 12 12 11 11 10 10 10 11 10 9 8 9 9 8 8 9 9 9 8 8 5 5 4 4 4 6 7 7 7 6 6 5 5 6 5 5 4 5 6 5 4 4 4 3 2 2 2 3 5 3 2 2 5 7 7 7
2 6 6 2 4 5 4 14 14 11 9 7 7 6 6 9 10 8 7 7 6 4 6 7 7 9 9 9 11 9 13 12 10 10 10 10 10 9 9 9 10 11 10 9 8 7 8 8 9 9 8 4 4 3 4 4 7 8 8 7 7 7 8 6 5 6 5 5 5 6 5 4 4 4 3 3 2 2 1 1 2 3 4 3 4 6 6
4 5 6 14 11 12 11 8 2 4 7 8 10 11 8 9 10 10 9 8 7 6 6 7 11 13 13 9 13 14 11 12 12 10 11 10 9 9 10 11 11 11 10 10 8 6 7 7 8 9 8 5 5 5 4 4 6 6 6 6 6 6 5 6 6 5 5 5 5 5 5 4 4 4 5 4 4 2 1 1 1 2 2 2 1 2 5
3 2 5 2 2 1 4 4 4 6 6 6 8 10 11 11 7 8 6 7 7 8 8 6 5 6 11 10 9 12 11 11 12 11 10 10 9 10 10 11 11 10 11 10 8 7 7 7 7 8 7 5 5 4 4 5 7 6 6 6 6 6 5 5 5 5 5 5 4 4 4 5 4 4 4 3 3 2 2 1 1 2 2 3 4 4 2
4 3 3 3 0 5 11 6 7 5 7 7 11 7 7 12 11 6 8 6 5 8 6 6 8 8 6 10 8 11 13 13 12 11 10 10 10 9 10 11 12 11 10 10 9 7 7 7 8 8 5 5 5 4 4 6 7 8 8 7 6 6 5 4 5 5 5 5 4 5 5 5 4 5 3 3 1 1 1 1 1 2 3 4 4 4 4
2 2 3 1 1 1 6 8 5 5 6 5 8 10 5 6 10 10 8 7 6 8 6 7 8 9 8 9 9 10 11 12 12 11 10 9 8 6 5 4 9 9 9 8 7 7 7 6 7 7 4 4 4 5 5 6 6 6 6 6 5 7 9 8 6 6 5 5 5 5 5 4 5 4 4 3 3 3 3 2 2 2 2 2 3 3 4
1 3 4 2 1 4 4 4 6 6 6 6 9 10 12 13 14 14 11 8 7 8 10 10 10 10 9 10 12 13 12 12 12 11 10 10 10 10 11 12 12 11 10 8 7 6 6 6 7 4 3 3 3 4 4 5 5 6 6 5 6 5 6 7 6 6 5 5 5 6 5 5 4 4 3 3 2 2 2 3 2 2 3 3 3 4 4
3 2 2 2 3 3 4 4 9 8 7 7 4 3 5 4 7 8 8 10 11 8 9 10 9 10 10 11 12 13 13 13 12 12 11 11 10 10 10 10 10 11 10 8 7 6 6 8 6 3 4 5 5 6 6 6 6 7 6 6 6 5 5 5 5 5 6 6 6 4 4 4 3 3 2 2 2 2 2 2 2 2 3 3 4 4 4
3 2 2 2 3 6 9 9 4 8 7 7 6 6 8 7 9 9 10 8 9 10 10 10 10 11 11 12 13 13 13 14 12 9 10 11 11 10 9 10 10 11 10 8 7 7 6 6 5 5 4 6 6 6 5 5 5 6 5 5 6 6 5 5 5 4 5 5 4 2 2 2 2 2 2 3 2 2 2 1 3 3 4 4 4 5 5
5 4 3 3 3 1 3 7 8 9 10 11 9 8 8 8 9 10 9 10 9 9 9 10 10 10 11 11 11 9 10 12 13 12 11 11 10 10 10 11 11 11 11 9 8 7 5 5 4 4 5 5 6 6 5 5 5 5 5 5 5 5 5 5 5 4 4 2 2 2 2 2 1 3 2 1 1 2 2 3 2 3 3 4 5 3 4
3 3 5 6 7 8 9 8 8 8 9 10 10 10 10 10 12 12 12 10 9 9 9 9 10 10 10 10 10 11 12 11 11 12 11 11 10 8 9 11 11 12 11 11 8 6 6 5 6 8 5 5 6 7 7 5 4 5 4 4 4 4 4 3 3 2 2 3 2 2 2 1 0 2 2 2 2 2 3 3 3 3 3 4 4 4 4
5 5 6 7 7 10 11 10 8 10 11 11 11 12 13 11 12 11 11 10 9 8 8 9 11 12 11 9 9 9 9 9 9 10 10 9 8 8 9 9 9 8 9 10 5 5 5 5 5 7 5 5 4 5 7 9 4 3 4 5 3 5 3 3 3 3 2 2 1 1 0 1 0 1 2 1 2 2 2 2 4 3 3 3 4 4 6
7 8 9 8 9 11 12 10 10 12 16 16 12 11 11 12 10 11 10 10 9 8 9 10 11 11 10 10 10 11 9 8 9 10 9 9 7 10 9 8 6 6 8 4 1 3 3 4 5 4 3 4 4 3 5 8 6 3 3 3 3 3 3 3 3 3 2 1 1 0 0 0 0 1 1 1 2 2 3 3 3 3 3 3 3 4 5
10 9 10 10 11 11 11 11 12 12 13 16 13 12 10 11 11 11 12 11 8 8 11 11 10 11 11 12 11 9 9 7 8 9 10 10 9 12 9 7 5 5 4 2 3 3 4 3 3 2 3 1 2 2 2 4 5 4 3 3 3 4 4 4 2 1 0 0 0 0 0 1 1 1 1 2 1 2 3 4 3 4 3 3 4 5 5
8 10 10 11 11 10 12 12 12 12 11 9 12 13 9 11 11 12 11 11 7 6 8 8 10 11 10 11 11 9 6 6 7 9 10 10 11 12 9 7 6 5 4 4 3 3 2 2 2 2 3 2 3 3 4 4 4 3 4 4 3 3 3 2 1 1 1 1 0 2 1 1 1 1 2 2 2 3 3 3 2 4 3 4 5 5 5
11 11 10 11 12 12 12 14 13 11 11 14 14 11 8 9 10 13 12 10 7 8 7 7 12 11 10 10 10 9 6 6 6 6 6 7 8 6 7 5 3 2 3 2 1 2 2 3 3 3 3 3 3 4 3 4 3 2 3 5 3 3 2 2 2 1 2 1 2 1 1 1 1 2 4 2 3 3 4 4 4 4 4 5 6 5 5
11 10 10 10 9 9 9 9 9 12 12 10 10 11 11 9 11 13 10 10 10 10 11 10 11 12 10 10 10 9 8 6 7 8 8 6 4 5 8 4 4 1 2 2 1 2 3 4 4 4 3 3 3 6 6 3 3 3 2 2 2 2 1 1 1 1 2 2 1 2 4 3 3 3 3 4 4 4 4 4 4 4 4 5 5 6 6
9 10 10 10 10 9 8 8 11 12 11 10 10 10 11 10 11 11 11 11 10 10 11 9 9 9 9 9 10 11 8 6 7 7 7 6 7 7 5 6 4 2 4 3 4 3 4 4 4 3 4 3 3 6 5 2 2 1 1 1 2 2 2 1 1 1 1 2 3 4 3 3 4 3 4 4 5 4 4 5 6 6 5 6 6 6 5
12 11 9 9 9 7 8 9 9 10 14 10 8 8 9 10 10 10 9 10 11 10 10 9 8 8 8 7 9 7 5 4 4 3 5 5 6 7 7 5 4 5 7 5 4 3 3 2 2 2 3 4 4 5 3 2 2 2 2 2 2 2 1 2 2 1 2 3 2 3 3 4 2 3 3 4 5 5 4 5 5 6 6 6 6 6 6
12 12 13 14 11 9 9 8 10 12 9 8 9 10 10 11 10 9 8 9 9 7 7 6 7 6 5 5 6 5 4 3 3 2 5 4 5 3 4 4 4 4 4 4 2 2 2 0 1 2 2 4 4 5 2 2 2 1 1 2 1 1 2 2 2 3 3 3 3 3 5 3 4 3 4 5 6 5 5 5 5 5 6 6 6 6 6
10 11 13 12 13 11 9 10 8 7 8 9 12 12 11 9 8 9 9 8 8 7 7 6 6 6 5 5 4 4 4 5 5 5 5 4 3 4 4 4 3 3 3 2 1 1 1 2 1 2 3 4 4 3 2 3 3 2 2 2 2 4 2 3 3 3 3 2 3 3 4 4 3 4 4 4 5 5 5 7 7 5 6 6 6 6 6
10 12 14 13 13 9 7 7 7 9 11 13 14 9 7 8 7 6 6 8 7 6 6 6 6 5 5 5 4 3 3 4 4 4 5 5 5 5 4 4 4 3 2 1 2 2 2 2 4 4 5 5 4 2 3 4 4 3 2 2 3 2 4 3 3 5 4 4 5 5 5 4 4 4 6 4 5 5 5 6 6 6 6 7 5 7 6
10 10 10 9 10 8 8 8 12 14 13 11 6 4 3 4 5 6 5 5 6 5 5 4 4 4 4 4 4 4 3 2 3 3 4 3 4 4 3 2 2 3 3 2 3 4 5 6 5 5 5 4 4 3 3 4 4 3 3 4 3 4 4 4 4 4 4 3 3 4 4 4 5 4 4 5 6 6 6 6 6 6 6 6 6 6 5
10 10 8 8 11 8 9 10 9 8 7 4 5 4 3 3 4 6 6 6 6 5 5 5 5 4 3 3 3 3 3 4 3 2 3 3 2 2 1 1 2 2 2 2 3 4 4 5 6 5 5 5 3 4 5 4 4 4 3 3 3 4 4 4 5 4 4 5 4 4 4 5 5 5 6 6 6 6 7 7 6 6 5 5 6 7 6
6 6 7 7 8 10 9 6 6 5 3 3 4 3 2 1 4 4 4 4 3 2 3 3 3 3 2 2 2 2 2 2 3 3 2 1 1 1 1 1 1 3 4 3 3 4 5 5 5 5 4 3 4 4 4 5 4 4 4 5 4 4 5 6 5 6 4 5 5 5 5 5 5 6 7 6 6 6 6 6 6 7 9 8 7 6 6
6 7 6 5 5 5 7 6 4 3 4 3 3 3 3 4 4 2 3 2 2 2 2 2 2 2 2 2 2 1 1 2 1 1 1 1 1 0 2 1 3 3 4 4 4 5 5 4 4 4 4 4 4 4 4 4 4 4 5 4 4 4 4 6 5 4 4 5 5 5 5 6 5 5 6 6 6 6 7 7 7 6 6 6 6 6 6
5 4 4 4 4 4 4 4 4 3 3 3 3 3 3 3 3 2 3 3 2 2 2 1 1 2 3 1 1 1 2 1 1 1 1 1 2 2 2 3 3 4 5 5 5 5 5 5 5 5 5 5 5 4 5 6 5 5 4 6 5 5 6 6 6 5 4 5 5 5 6 6 6 6 6 6 6 6 6 6 6 6 6 6 6 6 6
Wind_Direction
141 136 145 155 170 176 177 178 177 185 183 182 192 209 221 204 203 229 233 229 236 247 238 173 200 204 213 211 200 196 187 159 154 153 180 214 230 229 212 230 224 214 218 213 207 203 203 194 198 198 196 195 181 182 182 183 168 162 145 145 164 177 195 216 220 195 188 214 131 112 128 129 136 143 148 148 143 150 165 178 185 188 182 170 162 165 165
187 146 144 164 175 178 178 187 188 187 185 191 196 208 212 209 215 220 233 230 232 241 212 196 210 190 201 212 164 134 134 160 167 184 201 211 219 218 216 218 212 207 211 206 201 194 196 196 199 199 196 194 193 189 191 184 179 182 148 166 167 179 193 201 193 189 182 182 182 143 127 145 153 151 152 154 156 165 177 179 174 169 167 169 175 174 169
199 169 147 168 177 170 184 188 191 191 192 198 205 211 217 219 230 232 235 242 256 255 143 197 211 196 191 134 147 173 171 158 178 199 212 220 225 226 219 216 213 204 199 202 196 193 201 199 201 198 198 195 192 194 192 190 187 180 164 166 169 174 185 176 159 142 132 132 130 157 165 148 141 142 142 140 143 148 146 146 153 160 161 165 179 175 174
201 206 167 173 175 182 187 189 189 188 186 198 206 214 216 204 215 227 239 259 255 248 145 247 227 247 145 171 181 177 174 184 198 204 219 224 231 232 225 218 213 204 201 201 203 214 216 210 202 198 197 192 186 199 191 189 183 169 171 172 170 172 169 152 150 150 146 141 142 145 140 155 154 150 141 145 151 146 141 145 149 141 161 174 171 173 170
201 201 177 170 162 165 205 203 191 190 195 198 203 212 214 209 211 212 213 227 232 127 151 210 218 213 214 200 188 187 205 207 206 209 219 227 233 235 231 222 213 204 202 204 207 219 219 212 206 208 186 181 199 194 187 184 156 164 170 170 163 163 158 152 154 148 149 154 155 155 158 151 148 136 140 139 143 154 170 163 140 160 176 161 171 167 168
180 165 146 157 164 200 210 201 196 187 193 199 201 212 217 215 210 221 222 236 238 202 212 197 206 198 211 209 209 198 195 209 227 230 224 227 232 238 232 222 213 215 207 207 210 207 211 214 204 194 181 189 196 179 170 156 159 166 166 172 169 165 159 163 157 159 160 159 162 162 152 146 143 145 154 165 162 155 142 144 165 168 163 171 165 172 177
165 147 137 168 209 217 220 194 180 197 200 195 205 220 219 215 217 229 237 240 243 224 221 219 231 219 213 202 208 212 197 200 228 238 235 229 222 230 233 232 223 207 202 206 212 220 222 196 175 153 176 167 146 143 149 155 161 163 174 172 174 165 164 163 159 161 162 163 158 153 150 146 147 155 159 153 157 164 164 171 173 178 176 176 178 171 169
91 160 172 196 219 223 111 128 169 183 183 206 211 234 228 216 212 217 231 241 242 237 236 226 218 209 209 216 218 202 202 208 229 241 238 209 208 215 219 226 222 203 202 200 201 214 195 157 173 171 177 158 143 153 144 153 160 167 172 178 177 166 165 166 167 165 160 158 146 141 143 147 152 157 161 166 164 156 146 146 138 129 134 145 164 173 171
168 179 183 205 59 70 168 170 180 148 190 200 196 216 233 223 216 216 233 239 237 229 229 213 190 167 181 240 245 204 195 224 229 230 228 196 213 211 220 209 207 192 194 196 202 168 161 167 165 183 165 150 143 141 147 157 160 168 172 185 184 175 170 166 161 156 153 147 145 145 146 147 159 164 164 165 156 148 148 157 158 163 172 169 162 161 164
165 170 183 217 257 244 211 209 178 189 195 192 198 211 264 213 213 213 217 225 226 225 227 202 213 145 284 256 232 165 214 227 232 224 226 220 214 209 214 190 157 163 150 132 128 143 151 154 167 155 149 145 143 148 156 156 163 175 181 193 185 171 166 160 154 153 152 152 153 155 159 170 170 167 157 152 161 165 164 165 173 175 159 148 156 167 172
139 188 189 194 209 230 224 171 166 185 172 148 101 158 252 236 206 210 216 228 225 216 206 193 155 193 234 244 194 165 212 228 212 214 229 224 229 229 216 207 207 188 157 143 131 109 121 132 121 121 127 131 136 150 150 151 163 180 187 181 178 174 162 152 151 156 157 155 158 161 172 174 165 165 170 166 155 153 154 151 150 138 144 151 156 168 180
197 171 189 208 202 240 188 146 178 159 131 121 121 184 254 245 201 208 207 219 216 212 200 173 179 203 226 242 199 205 211 212 198 198 216 223 232 191 69 50 69 99 91 82 78 98 119 154 142 129 133 130 135 141 142 135 157 186 187 179 170 159 149 150 150 149 151 153 158 165 169 160 162 163 150 143 155 154 146 145 144 146 147 153 165 179 173
193 194 216 278 279 255 150 167 155 148 129 135 157 201 238 111 160 200 199 211 208 201 196 179 207 221 225 227 182 168 163 148 151 51 58 87 91 109 79 74 63 77 72 91 102 96 110 130 133 136 133 131 136 142 137 138 163 179 175 166 155 155 146 143 142 143 143 153 156 156 151 154 151 146 157 155 150 152 147 133 134 139 155 155 164 170 170
188 195 207 223 248 239 129 166 142 143 138 171 200 219 107 143 165 184 184 198 195 191 195 197 213 222 208 136 142 143 162 166 164 129 118 96 77 78 105 116 115 117 109 110 103 80 71 102 127 137 134 133 140 139 143 155 174 165 153 161 156 144 140 136 135 136 138 135 141 143 137 137 144 157 155 152 159 157 153 154 157 160 162 167 171 172 170
74 33 225 276 257 228 155 146 146 162 182 207 177 65 21 90 156 161 194 196 197 187 195 200 208 209 140 158 162 170 158 147 156 153 146 141 143 139 121 102 129 129 120 109 105 108 81 75 111 138 127 130 131 131 135 171 152 135 138 145 151 144 137 133 134 136 134 138 136 134 143 147 149 153 147 148 151 149 153 151 156 159 166 167 166 173 177
170 186 198 213 229 58 147 153 187 197 161 66 194 109 220 17 123 167 156 194 174 188 197 205 205 195 170 141 153 144 148 131 126 118 111 102 97 85 77 104 118 109 104 95 86 66 54 46 57 104 129 130 133 126 145 151 115 113 113 121 127 125 124 121 118 112 113 110 107 113 125 126 126 129 133 131 125 144 138 140 143 146 140 143 157 175 191
188 195 209 175 177 167 182 167 144 184 235 122 304 123 156 170 240 202 154 191 188 170 180 182 184 185 184 173 167 155 167 152 145 139 129 124 120 120 122 105 102 105 115 115 106 84 59 50 42 55 90 118 114 105 105 103 107 109 112 112 112 111 108 110 106 104 100 98 103 106 116 129 131 129 130 133 137 123 131 131 137 157 164 167 187 193 195
241 297 282 194 151 195 202 279 205 178 209 22 56 83 176 196 182 169 169 186 166 167 150 146 160 183 172 136 144 124 137 130 121 106 100 95 102 115 114 100 99 108 108 104 105 96 64 46 46 46 52 83 94 89 73 82 92 97 101 97 92 91 86 85 89 92 90 80 79 85 88 93 104 125 142 146 140 132 134 143 150 166 169 175 193 197 208
172 244 229 143 228 204 201 212 239 201 136 143 92 33 350 340 118 121 57 160 163 158 153 158 169 167 146 141 144 137 134 137 142 140 131 133 135 136 117 119 116 111 111 104 97 89 76 46 49 50 59 54 61 61 64 71 79 87 87 90 88 82 83 83 81 86 91 90 87 78 81 80 82 94 110 128 124 132 147 155 165 174 180 183 197 205 208
196 236 210 199 199 193 195 183 180 219 158 106 85 125 118 58 56 83 48 70 103 101 148 162 138 161 155 147 156 153 152 149 143 141 135 127 111 94 103 104 106 101 99 100 93 83 69 53 49 52 53 49 44 53 58 68 81 82 82 86 91 89 88 87 86 88 90 98 97 92 88 98 102 91 96 119 137 161 174 179 177 194 195 199 206 208 213
250 306 287 202 146 203 221 229 234 200 190 150 145 129 105 97 105 81 48 50 139 177 178 146 143 146 184 164 157 146 144 137 138 137 132 118 113 113 104 101 98 102 103 95 90 83 74 65 60 57 52 44 35 41 44 66 89 90 90 87 88 84 84 84 80 82 93 96 103 101 92 80 82 116 143 141 117 91 163 163 177 188 213 240 236 229 211
235 229 217 142 170 217 209 228 232 257 231 174 171 143 134 141 144 146 109 52 27 73 131 154 156 161 160 155 141 144 146 145 138 131 123 119 113 105 102 102 100 97 93 97 93 82 77 72 69 65 55 43 32 26 31 70 101 107 110 104 98 95 96 96 96 94 87 81 88 96 100 99 85 49 51 95 98 132 62 262 190 141 138 209 213 202 216
223 227 118 161 154 116 173 188 213 220 213 199 194 191 180 186 175 161 140 127 106 94 42 58 148 157 150 147 134 126 137 136 135 130 132 127 124 118 121 112 106 102 101 99 94 89 88 86 74 68 58 37 30 17 14 32 93 112 114 109 105 101 98 95 102 106 103 93 88 92 92 94 86 91 54 25 84 97 95 47 23 13 51 53 35 4 187
251 114 165 177 153 175 191 200 197 210 207 192 210 203 191 182 168 166 165 171 153 164 135 46 153 148 138 139 135 129 119 123 120 116 109 111 113 116 109 111 114 111 109 107 104 99 97 87 80 71 62 39 27 14 11 11 40 82 95 102 101 98 97 96 92 96 102 107 102 100 94 88 99 102 104 69 347 345 34 115 56 9 7 355 350 321 323
217 225 166 175 188 181 184 193 205 211 206 191 203 205 186 152 158 163 165 184 187 153 153 140 133 150 140 138 135 137 136 126 121 116 112 107 108 109 112 106 105 108 107 103 100 101 98 97 88 78 69 40 22 17 13 15 51 77 82 95 101 102 101 94 93 94 98 97 102 107 109 104 90 94 92 80 49 355 359 25 347 308 298 290 279 283 274
216 177 203 188 192 184 193 197 224 220 208 175 185 166 133 138 140 121 113 119 140 139 135 141 131 122 129 131 128 121 114 118 123 120 113 113 110 106 105 108 108 104 102 99 98 102 101 96 94 85 72 42 22 9 12 41 70 81 82 85 92 104 109 111 106 104 104 112 111 111 115 112 113 105 95 93 85 66 14 345 0 346 303 267 265 266 265
187 174 122 93 195 216 215 179 202 207 195 176 159 132 114 109 107 100 87 76 84 101 115 118 116 116 108 111 113 117 123 124 108 103 108 105 102 105 110 107 107 105 104 100 93 90 97 97 89 80 70 35 7 2 23 65 86 88 92 95 94 86 90 103 107 110 112 109 108 110 108 107 108 102 100 95 96 81 64 32 349 332 323 319 282 246 248
182 193 177 186 202 198 214 233 300 167 157 152 137 127 122 109 108 106 102 99 91 92 96 115 130 128 122 133 127 122 115 112 115 113 106 104 105 103 102 104 103 102 98 96 92 84 76 80 81 76 57 19 5 6 20 53 77 86 94 99 93 89 77 76 80 82 81 80 81 89 92 93 95 90 92 82 75 63 66 60 32 294 303 298 303 298 257
348 338 357 16 286 198 87 92 96 112 96 88 106 115 125 114 112 115 120 126 131 123 120 112 103 119 127 132 131 122 119 118 114 113 110 111 108 107 105 100 98 94 91 89 84 80 77 71 76 71 48 8 0 11 43 69 73 73 69 71 78 74 70 69 80 86 78 74 66 71 72 72 66 68 69 72 76 68 54 25 340 318 324 325 348 340 7
319 334 359 5 353 139 135 151 156 141 124 133 132 137 141 134 131 133 131 135 134 126 126 121 114 115 125 120 120 127 126 122 115 110 107 105 108 107 108 110 101 89 81 71 68 74 74 64 58 61 30 358 3 3 33 71 78 78 77 75 76 76 73 66 67 71 74 71 65 63 64 53 49 63 47 48 54 77 66 354 336 346 332 330 336 323 323
298 345 20 35 110 240 167 162 133 128 124 128 135 132 132 124 131 132 142 136 121 123 125 124 120 113 105 106 103 101 103 105 104 102 96 91 84 87 93 98 108 107 97 91 77 74 80 77 62 53 4 360 8 19 49 76 84 86 88 84 79 71 74 75 75 73 75 69 62 63 55 54 54 60 41 37 23 25 9 9 3 343 323 319 316 311 306
44 29 39 33 63 121 104 118 133 140 146 139 141 158 166 157 160 157 147 140 136 133 124 119 117 116 113 110 109 106 104 101 97 93 87 80 76 73 79 83 88 91 92 86 78 72 78 87 75 40 7 19 31 35 55 78 87 85 80 83 78 68 62 66 67 68 68 72 69 63 63 64 42 48 48 37 40 24 11 17 346 342 333 325 315 317 319
150 126 230 162 107 103 144 177 157 158 153 151 149 107 89 86 104 119 124 129 125 120 115 112 113 113 114 112 110 108 105 101 94 90 87 85 81 80 80 82 84 90 86 79 80 75 70 73 71 43 29 28 35 38 44 56 64 71 64 70 79 74 69 60 63 68 67 70 66 64 57 53 52 48 47 39 26 9 1 334 322 317 308 303 301 302 322
287 290 299 284 221 197 189 178 153 122 94 73 81 89 86 89 103 106 111 109 107 112 120 123 121 119 116 113 113 116 119 111 101 96 100 100 97 93 89 89 91 87 83 79 74 66 54 44 38 43 34 31 32 37 40 48 64 69 69 72 77 76 70 64 61 66 74 67 74 71 99 84 46 54 50 30 18 14 346 326 313 302 294 292 288 295 306
284 280 276 299 359 61 113 146 143 135 125 115 96 85 85 92 100 104 105 109 113 116 117 115 115 115 114 113 110 110 107 111 118 118 117 114 114 114 113 104 98 88 76 60 54 54 46 34 27 45 49 42 40 34 33 44 50 61 52 65 71 77 71 68 70 75 85 76 88 62 66 70 47 27 21 16 310 278 276 270 272 270 278 283 282 290 292
2 35 33 33 38 55 73 80 89 103 109 109 109 108 106 106 105 106 105 102 106 108 108 109 106 101 95 97 100 105 110 113 115 115 116 116 117 114 105 98 96 91 87 71 44 34 24 24 18 40 46 37 34 26 22 13 25 38 40 47 60 72 79 89 96 84 90 87 50 76 91 143 224 248 239 236 245 251 252 256 258 264 269 274 286 295 296
33 62 66 60 53 68 70 69 78 96 98 99 100 100 97 91 95 96 98 98 95 97 99 100 96 91 89 86 91 89 91 105 112 113 115 116 114 107 101 96 83 87 87 78 26 30 22 23 12 42 41 36 37 29 19 16 1 2 41 48 61 76 81 86 83 98 61 99 114 97 251 253 273 273 250 218 228 243 250 262 277 281 285 289 297 301 303
49 57 64 66 69 72 70 69 78 90 96 87 77 80 89 97 94 94 91 88 85 87 89 90 97 102 100 94 86 88 89 90 100 105 106 102 100 93 74 77 75 86 84 104 37 47 49 11 8 68 56 36 33 42 17 13 10 29 65 69 66 74 78 84 72 75 80 63 75 127 166 228 229 272 293 329 300 298 280 285 279 282 283 290 293 296 294
67 62 67 70 72 75 80 73 69 68 81 98 97 84 79 88 91 92 87 84 86 98 100 103 106 99 100 97 93 85 80 84 92 96 91 84 86 89 86 79 77 82 102 86 72 60 35 10 341 73 91 77 51 46 24 12 8 28 44 62 49 65 70 73 90 77 48 161 120 161 32 291 276 273 268 261 252 274 283 284 285 287 291 287 287 283 283
70 68 76 82 76 77 81 77 69 70 63 65 89 96 96 95 92 91 87 81 64 79 102 113 105 101 101 101 100 93 80 77 91 98 103 106 102 100 97 74 66 46 58 66 69 83 55 15 72 100 90 84 65 25 17 356 349 28 36 46 44 50 46 68 65 63 10 32 9 319 322 275 282 282 281 283 286 278 277 275 278 281 284 284 283 281 287
86 87 77 82 86 83 80 81 73 60 57 55 50 53 61 86 98 88 83 82 67 62 67 87 100 92 93 100 101 101 91 75 76 89 116 122 107 106 102 102 99 76 46 70 92 100 102 83 75 67 51 44 63 27 14 349 344 23 34 39 47 42 36 26 44 2 349 340 352 323 299 310 324 319 301 304 291 288 283 283 276 273 269 275 276 277 275
93 87 81 82 78 76 73 79 88 77 54 48 48 47 53 58 79 89 91 88 83 76 78 68 78 99 105 103 104 99 88 80 75 60 51 57 71 116 107 107 112 81 23 50 42 59 72 62 65 60 40 15 29 3 357 341 358 4 49 42 57 47 43 5 15 340 336 345 314 297 293 293 286 283 288 286 287 286 282 281 280 278 275 276 276 276 277
74 79 82 83 83 81 81 82 75 84 82 56 46 47 46 53 71 78 78 78 82 83 79 81 83 88 98 107 105 98 97 102 97 100 86 70 54 31 71 115 116 74 42 37 37 48 44 49 42 41 24 18 359 355 351 322 343 350 14 24 46 29 22 356 333 295 325 304 291 285 279 274 273 273 277 280 279 285 290 288 285 286 286 283 281 282 280
81 75 79 81 79 83 88 85 87 79 76 63 52 51 54 53 42 52 58 63 61 54 62 65 62 59 58 65 87 91 92 92 97 111 106 96 69 48 52 74 93 64 42 29 26 30 35 48 62 22 3 354 358 350 341 300 290 333 13 40 28 359 351 320 299 290 271 273 274 269 270 275 278 272 280 283 288 286 286 284 284 285 285 285 283 283 283
66 79 82 86 85 70 65 68 69 77 90 97 73 57 57 58 52 38 50 62 65 56 50 51 49 46 44 42 54 65 69 58 38 342 85 89 83 53 78 54 61 72 36 26 9 12 349 19 62 3 340 337 342 348 337 303 319 330 26 12 337 316 301 290 284 275 267 263 265 269 271 275 271 276 276 278 279 282 281 281 279 276 278 283 284 287 288
61 70 80 80 69 68 75 88 97 107 114 100 76 55 42 46 54 54 45 52 59 55 53 52 54 44 39 44 69 80 80 69 60 47 43 25 84 120 101 85 67 62 36 28 338 325 321 18 347 326 332 331 335 333 333 332 317 327 314 305 288 272 267 268 269 270 265 262 264 267 268 265 274 271 267 264 267 271 275 278 280 282 276 275 273 273 273
72 72 66 67 73 69 61 56 71 77 66 61 59 51 31 36 45 54 52 54 64 67 63 55 55 49 44 33 5 25 81 89 73 60 60 65 77 74 100 99 88 74 29 11 306 303 296 316 309 312 311 311 309 319 293 279 289 280 272 267 272 270 265 264 265 262 267 267 266 259 257 257 257 260 269 272 271 269 269 270 270 267 267 267 272 274 279
58 56 53 48 63 65 73 66 60 52 52 58 78 77 52 45 52 60 57 58 61 65 61 60 60 52 45 37 39 35 2 358 87 68 75 62 59 75 60 46 33 349 336 301 288 267 264 264 277 287 283 283 291 272 267 261 253 254 246 249 256 256 256 260 267 270 269 271 268 266 267 266 264 258 258 256 257 260 259 260 262 264 261 260 259 262 265
47 56 50 44 35 34 52 61 60 61 58 59 66 65 52 57 72 60 50 43 43 49 55 53 52 45 47 40 39 23 31 16 35 111 71 78 32 25 31 9 337 314 298 287 278 283 280 270 264 267 274 275 262 256 254 253 248 244 249 249 251 258 260 259 258 257 257 258 258 262 264 265 262 262 261 262 262 258 258 258 258 259 264 267 271 270 271
37 43 40 33 36 30 17 49 58 61 53 48 53 43 342 333 68 48 44 41 46 45 52 61 62 63 70 65 52 55 27 37 37 56 42 44 24 22 323 8 325 282 269 266 268 270 268 263 258 258 258 252 252 248 249 249 245 247 246 250 251 249 251 253 258 258 255 256 261 262 261 257 258 255 257 256 258 259 261 262 262 262 268 272 271 273 273
31 50 51 46 51 53 38 44 54 59 65 54 50 37 31 52 76 75 64 31 43 62 60 60 85 113 97 101 102 58 63 54 60 72 53 6 298 299 300 262 259 261 258 254 256 259 267 267 261 254 251 248 247 248 247 243 244 247 251 250 254 255 256 261 258 256 257 255 251 250 253 255 257 259 260 261 264 266 266 266 269 268 268 265 268 269 272
69 76 69 68 67 69 72 69 64 63 57 49 42 37 43 55 75 89 81 62 63 58 49 52 90 116 128 145 101 78 90 103 18 350 339 338 317 304 278 277 259 252 248 245 249 253 254 256 260 259 249 248 251 256 261 264 260 257 256 256 252 252 252 250 250 252 252 253 253 258 258 259 256 258 259 259 259 261 263 265 265 267 267 270 270 271 273